Find Starlink 31873

NORAD ID: 59790 Int'l Des: 2024-093 Owner: SPXS Country: US Constellation: starlink operational
LEOCIRCULAR

当前视图

正在加载3D地球...

About Starlink 31873

Starlink 31873 (NORAD 59790) is a starlink constellation satellite (v2 mini) launched May 18, 2024 by SPXS of US. It operates in LEO, CIRCULAR orbit with a mass of 730.00 kg.

即将过境

Passes for default location (London). Set your location on the main map for personalized predictions.

高度历史

Loading altitude history...

两行轨道根数

1 59790U 24093J 26236.31769712 -.00000151 00000-0 40400-5 0 9994
2 59790 42.9990 342.0781 0000586 277.0315 83.0470 15.27580799128336
Epoch: Aug 24, 2026 • Age: 17 hours

当前状态

高度 484.5 km
远地点 / 近地点 N/A
速度 7.62 km/s
星下点 -10.24°S, 18.71°W
发射日期 May 18, 2024
运行时间 2.2 years
类型 internet

技术详情

分类 Payload
质量 730.00 kg
干质量 700.00 kg
总质量 730.00 kg
长度 0.30 m
直径 4.10 m
跨度 29.00 m
形状 Box + pan
制造商 SPXS
平台类型 Starlink V2M
阶段状态 In Orbit
所有者/国家 SPXS/US

Most Searched